Raleigh-Durham Airport, NC

3:42 PM EDT on July 25, 2017 (GMT -0400)
Raleigh-Durham International

Weather History for KRDU - November, 2013

Change the Weather History Date:

Wednesday, November 6, 2013

  Actual Average Record
Temperature  
Mean Temperature 58 °F 55 °F  
Max Temperature 71 °F 67 °F 83 °F (2003)
Min Temperature 44 °F 43 °F 23 °F (1991)
Degree Days  
Heating Degree Days 7 10  
Month to date heating degree days 62 58  
Since 1 July heating degree days 221 247  
Cooling Degree Days 0 0  
Month to date cooling degree days 2 1  
Year to date cooling degree days 1552 1721  
Growing Degree Days 8 (Base 50)    
Moisture  
Dew Point 49 °F    
Average Humidity 72    
Maximum Humidity 93    
Minimum Humidity 51    
Precipitation  
Precipitation 0.00 in 0.10 in 4.55 in (1963)
Month to date precipitation 1.23 0.63  
Year to date precipitation 43.02 37.78  
Snow  
Snow 0.00 in 0.00 in 0.60 in (1953)
Month to date snowfall 0.0 0.0  
Since 1 July snowfall 0.0 0.0  
Since 1 September snowfall 0.0 0.0  
Snow Depth 0.00 in    
Sea Level Pressure  
Sea Level Pressure 30.30 in    
Wind  
Wind Speed 4 mph (ENE)    
Max Wind Speed 9 mph    
Max Gust Speed 18 mph    
Visibility 10 miles    
Events      
T = Trace of Precipitation, MM = Missing Value Source: NWS Daily Summary

Daily Weather History Graph

Daily Weather History Graph

Search for Another Location

Airport or City:

Trip Planner

Search our weather history database for the weather conditions in past years. The results will help you decide how hot, cold, wet, or windy it might be!

Date:

Astronomy

Nov. 06, 2013 Rise Set
Actual Time 6:42 AM EST 5:14 PM EST
Civil Twilight 6:15 AM EST 5:41 PM EST
Nautical Twilight 5:45 AM EST 6:11 PM EST
Astronomical Twilight 5:15 AM EST 6:41 PM EST
Moon 9:53 AM EST (11/6) 8:19 PM EST (11/6)
Length of Visible Light 11h 25m
Length of Day
10h 31m
Waxing Crescent, 13% of the Moon is Illuminated
Nov 6
Waxing Crescent
Nov 10
First Quarter
Nov 17
Full
Nov 25
Last Quarter
Dec 2
New

Hourly Weather History & Observations

Time (EST) Temp. Windchill Dew Point Humidity Pressure Visibility Wind Dir Wind Speed Gust Speed Precip Events Conditions
12:51 AM 51.1 °F - 48.0 °F 89% 30.42 in 10.0 mi NNE 3.5 mph - N/A   Mostly Cloudy
1:51 AM 50.0 °F - 46.9 °F 89% 30.42 in 10.0 mi Calm Calm - N/A   Scattered Clouds
2:51 AM 48.0 °F - 46.0 °F 93% 30.40 in 10.0 mi Variable 3.5 mph - N/A   Scattered Clouds
3:51 AM 46.9 °F - 45.0 °F 93% 30.38 in 10.0 mi NNE 3.5 mph - N/A   Scattered Clouds
4:51 AM 46.0 °F - 43.0 °F 89% 30.38 in 10.0 mi Calm Calm - N/A   Scattered Clouds
5:51 AM 45.0 °F 41.8 °F 42.1 °F 90% 30.38 in 10.0 mi NE 5.8 mph - N/A   Scattered Clouds
6:51 AM 45.0 °F 42.6 °F 42.1 °F 90% 30.38 in 10.0 mi NNE 4.6 mph - N/A   Scattered Clouds
7:51 AM 46.9 °F - 43.0 °F 86% 30.38 in 10.0 mi NNE 5.8 mph - N/A   Mostly Cloudy
8:51 AM 51.1 °F - 46.0 °F 83% 30.38 in 10.0 mi NE 5.8 mph - N/A   Mostly Cloudy
9:51 AM 57.9 °F - 48.0 °F 70% 30.38 in 10.0 mi Variable 3.5 mph - N/A   Scattered Clouds
10:51 AM 63.0 °F - 50.0 °F 63% 30.35 in 10.0 mi Calm Calm - N/A   Mostly Cloudy
11:51 AM 66.9 °F - 48.9 °F 52% 30.32 in 10.0 mi Variable 5.8 mph - N/A   Mostly Cloudy
12:51 PM 69.1 °F - 50.0 °F 51% 30.29 in 10.0 mi ESE 5.8 mph - N/A   Scattered Clouds
1:51 PM 69.1 °F - 51.1 °F 53% 30.26 in 10.0 mi SE 5.8 mph - N/A   Mostly Cloudy
2:51 PM 70.0 °F - 51.1 °F 51% 30.24 in 10.0 mi East 5.8 mph - N/A   Mostly Cloudy
3:51 PM 70.0 °F - 52.0 °F 53% 30.22 in 10.0 mi ESE 4.6 mph - N/A   Scattered Clouds
4:51 PM 66.9 °F - 53.1 °F 61% 30.21 in 10.0 mi East 4.6 mph - N/A   Scattered Clouds
5:51 PM 62.1 °F - 54.0 °F 75% 30.22 in 10.0 mi ESE 3.5 mph - N/A   Scattered Clouds
6:51 PM 57.9 °F - 54.0 °F 87% 30.21 in 10.0 mi NE 3.5 mph - N/A   Partly Cloudy
7:51 PM 57.0 °F - 53.1 °F 87% 30.20 in 10.0 mi Calm Calm - N/A   Partly Cloudy
8:51 PM 55.9 °F - 53.1 °F 90% 30.19 in 10.0 mi Calm Calm - N/A   Scattered Clouds
9:51 PM 59.0 °F - 55.0 °F 87% 30.17 in 10.0 mi SSE 3.5 mph - N/A   Partly Cloudy
10:51 PM 60.1 °F - 55.9 °F 86% 30.15 in 10.0 mi Calm Calm - N/A   Mostly Cloudy
11:51 PM 60.1 °F - 57.0 °F 90% 30.12 in 10.0 mi SSE 6.9 mph - N/A   Mostly Cloudy